Corpus Christi, TX

12:09 AM CDT on September 28, 2016 (GMT -0500)
Corpus Christi International

Weather History for KCRP - May, 2013

Change the Weather History Date:

Friday, May 24, 2013

  Actual Average Record
Temperature  
Mean Temperature 84 °F 80 °F  
Max Temperature 93 °F 88 °F 94 °F (1974)
Min Temperature 75 °F 72 °F 58 °F (1967)
Degree Days  
Heating Degree Days 0 0  
Month to date heating degree days 1 0  
Since 1 July heating degree days 529 898  
Cooling Degree Days 19 15  
Month to date cooling degree days 332 306  
Year to date cooling degree days 875 734  
Growing Degree Days 34 (Base 50)    
Moisture  
Dew Point 73 °F    
Average Humidity 67    
Maximum Humidity 85    
Minimum Humidity 49    
Precipitation  
Precipitation T in 0.11 in 2.67 in (1971)
Month to date precipitation 0.71 2.30  
Year to date precipitation 4.04 9.50  
Snow  
Snow 0.00 in - - ()
Month to date snowfall 0.0  
Since 1 July snowfall 0.0  
Snow Depth 0.00 in    
Sea Level Pressure  
Sea Level Pressure 30.01 in    
Wind  
Wind Speed 16 mph (ESE)    
Max Wind Speed 28 mph    
Max Gust Speed 33 mph    
Visibility 10 miles    
Events Rain , Thunderstorm    
T = Trace of Precipitation, MM = Missing Value Source: NWS Daily Summary

Daily Weather History Graph

Daily Weather History Graph

Search for Another Location

Airport or City:

Trip Planner

Search our weather history database for the weather conditions in past years. The results will help you decide how hot, cold, wet, or windy it might be!

Date:

Astronomy

May. 24, 2013 Rise Set
Actual Time 6:36 AM CDT 8:17 PM CDT
Civil Twilight 6:10 AM CDT 8:43 PM CDT
Nautical Twilight 5:39 AM CDT 9:14 PM CDT
Astronomical Twilight 5:06 AM CDT 9:47 PM CDT
Moon 8:03 PM CDT (5/24) 6:05 AM CDT (5/24)
Length of Visible Light 14h 33m
Length of Day
13h 41m
Full, 100% of the Moon is Illuminated
May 24
Full
May 24
Full
May 31
Last Quarter
Jun 8
New
Jun 16
First Quarter

Hourly Weather History & Observations

Time (CDT) Temp. Heat Index Dew Point Humidity Pressure Visibility Wind Dir Wind Speed Gust Speed Precip Events Conditions
12:51 AM 81.0 °F 86.7 °F 75.0 °F 82% 30.00 in 10.0 mi ESE 11.5 mph - N/A   Mostly Cloudy
1:44 AM 80.6 °F 86.2 °F 75.2 °F 84% 29.99 in 10.0 mi ESE 15.0 mph - N/A   Mostly Cloudy
1:51 AM 81.0 °F 86.7 °F 75.0 °F 82% 29.98 in 10.0 mi ESE 13.8 mph - N/A   Mostly Cloudy
2:37 AM 80.6 °F 86.2 °F 75.2 °F 84% 29.97 in 10.0 mi ESE 12.7 mph - N/A   Mostly Cloudy
2:51 AM 81.0 °F 86.7 °F 75.0 °F 82% 29.96 in 10.0 mi ESE 15.0 mph 21.9 mph N/A   Mostly Cloudy
3:51 AM 81.0 °F 86.7 °F 75.0 °F 82% 29.96 in 10.0 mi ESE 12.7 mph - N/A   Overcast
4:37 AM 80.6 °F 86.2 °F 75.2 °F 84% 29.97 in 10.0 mi ESE 16.1 mph - N/A   Mostly Cloudy
4:51 AM 81.0 °F 86.2 °F 73.9 °F 79% 29.97 in 10.0 mi ESE 18.4 mph 24.2 mph N/A   Scattered Clouds
5:43 AM 80.6 °F 86.2 °F 75.2 °F 84% 29.98 in 10.0 mi ESE 15.0 mph - N/A   Overcast
5:51 AM 81.0 °F 86.7 °F 75.0 °F 82% 29.98 in 10.0 mi ESE 13.8 mph - N/A   Overcast
6:13 AM 80.6 °F 85.4 °F 73.4 °F 79% 29.97 in 10.0 mi ESE 13.8 mph - N/A   Scattered Clouds
6:41 AM 80.6 °F 85.4 °F 73.4 °F 79% 29.98 in 10.0 mi ESE 12.7 mph - N/A   Mostly Cloudy
6:51 AM 80.1 °F 84.5 °F 73.9 °F 81% 29.98 in 9.0 mi ESE 12.7 mph - N/A   Overcast
7:51 AM 82.0 °F 87.9 °F 73.9 °F 76% 30.00 in 9.0 mi SE 19.6 mph - N/A   Overcast
8:51 AM 84.0 °F 90.2 °F 73.0 °F 69% 30.03 in 10.0 mi SSE 19.6 mph - N/A   Mostly Cloudy
8:58 AM 84.2 °F 90.9 °F 73.4 °F 70% 30.04 in 10.0 mi SSE 15.0 mph - N/A   Mostly Cloudy
9:51 AM 86.0 °F 92.2 °F 72.0 °F 63% 30.07 in 10.0 mi SSE 18.4 mph - N/A   Overcast
10:43 AM 87.8 °F 93.8 °F 71.6 °F 58% 30.08 in 10.0 mi SE 20.7 mph 25.3 mph N/A   Mostly Cloudy
10:51 AM 87.1 °F 93.6 °F 72.0 °F 61% 30.07 in 10.0 mi SE 20.7 mph - N/A   Mostly Cloudy
11:51 AM 89.1 °F 96.0 °F 72.0 °F 57% 30.07 in 10.0 mi SE 18.4 mph 25.3 mph N/A   Mostly Cloudy
12:51 PM 90.0 °F 96.4 °F 71.1 °F 54% 30.05 in 10.0 mi SE 20.7 mph 26.5 mph N/A   Mostly Cloudy
1:51 PM 93.0 °F 100.1 °F 71.1 °F 49% 30.01 in 10.0 mi ESE 23.0 mph 33.4 mph N/A   Scattered Clouds
2:51 PM 91.9 °F 98.4 °F 71.1 °F 50% 30.02 in 10.0 mi SE 19.6 mph 28.8 mph N/A   Scattered Clouds
3:51 PM 88.0 °F 94.7 °F 72.0 °F 59% 30.02 in 10.0 mi SE 19.6 mph 25.3 mph N/A   Scattered Clouds
4:51 PM 84.9 °F 90.7 °F 72.0 °F 65% 30.02 in 10.0 mi SE 16.1 mph - N/A   Mostly Cloudy
5:12 PM 84.2 °F 89.6 °F 71.6 °F 66% 30.03 in 10.0 mi ESE 15.0 mph - N/A Thunderstorm Thunderstorm
5:38 PM 84.2 °F 89.6 °F 71.6 °F 66% 30.04 in 10.0 mi SE 12.7 mph - N/A Thunderstorm Thunderstorm
5:51 PM 82.9 °F 88.8 °F 73.0 °F 72% 30.04 in 10.0 mi ESE 12.7 mph - N/A Thunderstorm Thunderstorm
6:48 PM 78.8 °F - 68.0 °F 69% 30.05 in 10.0 mi NW 11.5 mph - 0.00 in Rain Light Rain
6:51 PM 78.1 °F - 68.0 °F 71% 30.04 in 10.0 mi NW 4.6 mph - 0.00 in Rain Light Rain
7:20 PM 75.2 °F - 69.8 °F 83% 30.05 in 10.0 mi WNW 8.1 mph - 0.00 in Rain Light Rain
7:51 PM 75.0 °F - 70.0 °F 84% 30.02 in 10.0 mi Calm Calm - 0.00 in   Scattered Clouds
8:51 PM 79.0 °F - 70.0 °F 74% 29.99 in 10.0 mi ESE 11.5 mph - 0.00 in Rain Light Rain
9:51 PM 81.0 °F 86.2 °F 73.9 °F 79% 29.99 in 10.0 mi East 18.4 mph 25.3 mph 0.00 in   Scattered Clouds
10:51 PM 82.0 °F 88.6 °F 75.0 °F 79% 30.02 in 10.0 mi ESE 18.4 mph - N/A   Mostly Cloudy
11:15 PM 82.4 °F 89.5 °F 75.2 °F 79% 30.03 in 10.0 mi ESE 21.9 mph - N/A   Mostly Cloudy
11:51 PM 82.0 °F 87.9 °F 73.9 °F 76% 30.04 in 10.0 mi SE 20.7 mph 27.6 mph N/A   Mostly Cloudy